Theta_e
334 334 334 334 332 331 331 330 328 328 326 326 324 324 322 321 320 320 319 316 315 314 313 311 310 310 308 308 306 306 306 305 306 305 304 304 304 303 303 303 302 301 303 302 303 301 301 301 301 301 301 300 299 301 301 301 301 300 301 298 297 297 296 294 293 294 295 298 298 299 300 299 298 298 298 297 297 298 301 297 298 297 298 297 297
334 334 334 334 332 331 330 330 328 327 326 325 324 323 320 320 319 318 317 316 315 314 312 311 310 309 308 306 306 306 306 305 305 305 304 303 303 305 303 302 301 301 302 301 302 303 300 299 300 300 301 300 299 300 300 299 301 298 298 299 297 298 298 297 294 294 293 295 295 297 296 298 296 298 296 296 296 297 296 297 298 298 298 296 296
335 334 334 333 332 332 331 329 328 327 325 324 324 321 319 319 319 318 316 315 315 314 312 311 310 309 307 306 306 305 305 305 305 304 303 303 303 303 303 301 302 302 301 301 301 301 300 301 300 302 304 300 300 299 299 299 300 299 298 298 297 297 298 297 295 293 292 293 295 294 295 296 295 296 296 298 297 296 295 296 297 298 298 296 296
335 335 334 333 332 331 330 329 327 326 325 324 322 320 319 318 319 318 317 315 314 313 312 311 310 308 307 306 305 305 305 305 305 304 303 303 303 303 303 303 303 302 301 300 301 301 300 299 300 301 301 299 298 297 297 298 298 298 297 297 296 296 296 295 294 293 292 293 293 294 295 294 294 296 298 297 295 295 295 296 296 296 295 296 296
335 334 334 332 331 330 328 327 326 325 324 323 320 319 318 318 318 317 316 314 313 312 312 311 309 308 307 306 305 305 305 305 304 303 303 303 303 304 304 303 303 302 301 301 306 300 301 300 301 301 300 297 296 295 295 295 297 298 295 295 295 295 295 295 294 294 291 291 292 294 294 294 295 295 296 294 294 294 294 294 294 295 295 295 297
335 334 333 331 330 329 327 326 325 325 323 321 320 319 317 317 316 316 315 314 312 312 311 310 309 307 306 306 305 305 305 305 304 304 304 304 304 304 304 304 303 302 302 302 301 302 300 300 300 300 299 297 295 294 294 294 295 295 294 293 293 293 292 293 293 292 291 291 290 291 292 292 292 293 295 295 294 293 293 293 294 295 294 294 295
334 333 332 331 329 328 327 325 325 323 321 320 319 318 317 316 316 315 315 314 312 311 310 309 309 307 306 306 306 305 305 305 304 304 305 305 305 305 304 303 302 303 302 302 302 302 301 300 299 297 296 295 293 292 292 293 296 293 295 293 293 291 291 291 292 291 290 290 290 290 290 292 292 292 294 294 293 293 292 291 292 294 295 295 294
333 332 331 330 328 327 326 325 323 321 320 319 318 318 317 316 315 315 314 313 311 310 310 309 308 307 306 306 306 305 304 304 304 304 304 305 305 304 304 302 302 302 302 301 302 301 301 298 296 295 295 294 293 292 292 292 293 293 292 293 293 292 291 292 291 291 290 290 289 288 289 290 290 292 294 292 291 291 293 292 291 292 294 295 294
332 331 330 328 327 326 325 324 322 320 319 318 318 317 317 316 315 314 313 312 312 311 310 309 307 306 306 306 305 305 304 304 305 305 305 306 305 304 303 302 302 301 300 300 300 301 298 296 295 294 301 302 302 301 303 302 294 292 292 293 294 292 291 291 293 291 291 290 290 290 289 289 290 290 290 291 291 291 293 293 292 293 294 294 294
331 330 329 327 326 325 324 322 320 320 319 318 317 317 316 315 314 313 313 312 311 310 309 308 307 306 305 304 304 305 304 305 308 307 306 305 304 304 303 302 301 301 301 300 300 299 296 295 301 304 302 301 302 299 297 299 303 298 294 293 293 292 291 291 291 291 292 291 289 289 289 289 290 291 291 292 293 293 293 293 292 293 293 292 293
330 329 327 326 325 323 322 320 320 319 318 318 317 316 316 314 313 313 313 312 310 309 309 307 306 305 305 304 304 304 305 305 302 298 299 302 304 302 302 301 301 301 300 299 299 299 296 296 296 301 302 304 300 298 296 296 295 295 297 299 300 295 292 291 291 291 291 292 291 290 288 289 291 292 292 293 293 293 293 293 293 293 291 290 289
329 328 326 325 323 322 321 320 318 318 318 317 316 316 315 313 312 312 311 310 309 308 307 306 305 305 305 304 304 304 304 303 296 297 298 299 303 303 302 302 302 301 300 300 300 299 295 295 296 300 298 297 297 297 298 297 295 294 294 294 293 294 296 294 293 291 290 290 290 290 289 289 290 292 292 292 292 293 294 293 293 292 291 290 290
328 327 325 323 322 321 320 319 318 317 317 317 316 316 314 312 311 310 309 309 308 307 306 306 305 305 305 304 304 305 303 297 295 296 297 298 299 302 303 302 302 301 301 300 300 299 296 295 297 299 301 306 305 297 296 297 300 297 296 296 296 295 292 291 293 295 292 290 290 289 290 290 290 292 294 294 294 292 293 293 293 292 292 291 291
327 325 324 322 321 320 319 318 317 317 317 316 316 315 313 311 310 310 309 308 307 306 305 304 304 304 304 304 304 304 301 296 295 295 295 296 298 300 302 302 302 301 301 301 301 300 298 296 297 299 298 301 297 294 293 292 292 292 293 294 295 299 298 296 293 292 295 293 291 290 292 292 292 293 296 295 293 293 292 292 292 292 291 292 293
326 324 323 322 320 319 318 317 317 316 316 316 315 314 312 310 309 308 308 307 306 305 304 303 304 304 304 304 303 304 303 295 294 294 294 295 296 298 300 303 302 301 301 301 301 301 300 300 299 298 298 296 295 294 292 291 291 292 292 294 296 297 297 297 294 293 293 293 292 292 292 293 294 295 295 295 294 294 294 293 292 292 293 293 293
325 323 321 320 319 319 318 317 316 316 316 316 315 314 311 309 308 307 306 306 305 304 303 304 303 303 304 304 303 304 303 293 293 294 294 293 297 301 299 299 299 299 299 300 300 301 301 300 299 298 296 293 298 296 295 292 291 291 292 293 295 295 297 304 297 297 296 294 294 294 295 296 295 295 295 295 294 293 294 294 293 292 290 290 290
322 322 320 320 319 319 318 317 316 316 315 315 314 313 309 308 307 307 305 304 304 303 302 302 303 303 303 303 303 302 300 294 293 294 293 294 297 299 299 298 299 299 299 300 300 300 301 299 298 296 293 291 293 290 292 295 291 292 293 291 293 293 295 297 296 295 295 294 293 293 293 293 294 294 294 294 294 293 290 290 292 291 290 289 290
322 320 320 319 319 319 318 317 316 315 315 314 314 312 309 308 307 306 305 304 303 303 303 303 303 304 303 303 303 302 300 296 293 293 293 294 298 299 298 298 298 299 299 299 299 298 301 310 304 296 293 292 291 290 291 294 290 291 292 291 291 292 293 294 295 295 294 294 294 294 294 294 294 295 295 295 295 296 293 292 293 290 290 290 289
321 320 319 319 319 319 318 317 316 315 315 314 313 310 308 307 307 307 305 305 304 304 304 303 302 302 303 303 307 303 300 297 293 293 293 294 299 299 299 297 298 298 299 298 298 299 299 307 306 299 294 293 290 290 291 294 291 291 291 291 290 290 291 290 291 291 292 293 294 294 294 296 298 297 297 296 296 299 295 294 293 291 290 290 291
321 321 320 319 319 318 317 316 315 314 314 313 311 309 308 307 306 305 304 304 303 302 301 301 301 301 302 302 305 302 299 297 295 292 293 294 297 300 300 299 298 297 296 298 298 296 298 297 298 293 292 290 289 289 290 293 291 290 291 290 289 290 290 290 292 292 292 292 292 293 294 295 295 294 294 295 297 298 296 295 294 293 292 290 290
322 321 320 319 319 317 316 316 314 314 314 312 310 309 307 306 305 304 303 302 302 300 300 300 300 300 300 301 302 300 300 298 296 292 293 294 296 298 300 299 296 295 294 297 297 297 297 295 293 293 290 290 290 289 290 290 292 291 290 290 291 292 292 289 292 295 291 293 293 293 294 294 293 294 293 294 295 296 296 295 295 294 293 292 289
322 321 320 319 319 317 316 315 314 314 313 312 309 307 306 305 304 303 302 301 300 299 298 298 298 298 301 303 302 300 301 301 296 293 292 294 294 296 298 297 295 293 294 294 296 296 296 295 293 292 290 290 290 290 290 290 290 292 291 291 291 291 291 292 291 292 292 292 291 292 293 291 291 293 293 294 294 296 295 295 295 295 295 293 291
322 321 320 319 318 317 316 314 313 313 312 310 308 305 304 304 303 303 301 300 299 298 298 299 300 301 302 301 301 300 299 299 296 295 292 292 293 294 295 292 292 296 293 292 292 292 294 295 296 295 290 290 290 290 290 290 290 290 290 289 290 289 290 290 290 291 289 290 291 291 291 291 292 291 292 293 294 295 295 295 295 295 295 296 294
322 320 318 317 315 315 314 313 313 312 310 308 306 304 304 304 303 302 301 300 299 300 301 301 301 301 300 300 299 298 298 297 295 294 293 292 292 293 292 291 291 292 293 291 293 290 289 293 295 292 290 290 290 290 289 290 289 289 289 289 289 290 290 289 289 291 290 290 291 291 290 290 290 291 292 294 294 294 295 295 295 295 295 295 294
320 318 316 313 313 313 313 312 310 309 309 307 305 304 304 304 302 302 301 300 300 300 300 301 300 300 300 300 298 297 296 295 294 293 293 292 292 292 291 291 290 290 289 292 291 290 288 289 292 291 290 290 290 289 289 289 289 289 289 289 292 289 290 289 289 291 290 291 291 291 290 291 291 292 294 293 294 294 293 295 295 295 295 295 295
315 314 313 312 312 312 311 310 309 308 307 307 306 305 304 303 302 301 301 300 300 300 300 300 299 299 298 298 297 297 296 294 293 293 294 294 292 291 291 290 291 290 292 293 292 290 289 289 289 290 290 290 290 288 288 290 290 289 289 290 291 289 289 289 290 290 291 291 290 289 290 290 292 294 293 292 292 292 292 293 293 293 294 293 292
312 312 311 311 311 311 309 307 306 306 306 306 306 305 304 303 302 301 300 300 299 299 299 298 298 297 297 298 297 297 296 294 293 292 292 292 292 292 290 290 291 290 291 290 291 289 288 289 289 289 290 289 290 290 290 292 292 292 291 292 293 292 292 291 292 292 292 291 291 290 290 291 292 292 292 291 291 292 293 292 291 293 292 292 290
311 311 310 309 308 309 308 299 303 305 305 305 305 304 304 303 302 301 300 300 299 298 297 296 296 297 297 297 297 297 295 294 293 292 291 292 291 291 289 290 288 287 287 288 289 291 290 290 289 289 289 290 289 289 289 290 290 289 290 290 291 292 294 295 295 293 292 293 292 291 291 292 292 292 291 291 290 292 292 291 292 292 292 291 290
311 310 309 308 307 306 306 305 305 304 304 305 305 305 303 303 302 301 302 301 300 298 297 297 297 297 299 298 297 296 295 294 295 293 293 292 291 291 289 289 288 287 290 290 293 293 291 289 290 289 288 288 289 290 289 290 290 291 292 292 292 291 292 291 293 293 293 292 291 291 292 291 291 291 290 290 291 291 292 292 292 292 292 291 289
311 309 308 307 306 304 304 305 305 305 304 304 304 304 299 299 301 301 300 297 295 295 294 297 298 298 298 298 299 298 296 297 293 292 292 291 291 291 291 290 289 289 290 290 292 291 291 289 289 288 289 288 289 288 289 289 290 291 293 292 293 292 292 293 293 293 292 291 291 290 290 290 291 290 289 289 290 291 291 290 291 291 290 289 289
309 308 306 305 302 303 304 304 305 305 304 304 304 302 301 300 296 296 297 296 294 293 293 294 295 294 298 297 296 294 294 292 292 292 291 291 291 290 290 289 289 289 290 290 289 288 288 287 287 288 287 289 288 290 288 288 288 288 290 292 293 293 291 292 292 290 289 286 288 290 290 289 289 289 288 289 290 290 291 290 290 290 288 288 288
309 308 307 304 301 302 304 304 304 304 304 304 303 302 301 299 299 295 295 294 294 293 293 293 293 292 293 295 296 294 292 292 292 292 291 291 290 290 289 289 289 290 290 291 288 286 285 287 285 287 287 288 287 286 286 288 288 288 288 288 289 288 290 290 292 293 289 288 287 287 286 287 289 286 286 288 286 289 290 289 289 288 289 289 289
309 308 306 304 303 302 303 303 303 304 303 303 303 302 301 299 298 297 295 292 292 292 292 292 293 292 292 293 293 292 292 291 291 291 291 290 290 289 290 290 290 290 290 289 287 286 287 288 287 288 287 286 287 287 288 289 290 290 291 290 289 289 291 293 292 292 289 290 288 287 285 285 285 285 286 286 286 288 288 287 288 288 289 288 287
310 308 305 304 304 304 304 303 303 304 304 304 303 303 301 300 298 296 293 292 291 291 292 291 291 291 292 293 293 292 291 291 291 291 290 290 289 289 289 289 290 291 290 287 286 286 287 288 289 289 289 288 288 288 288 289 290 290 290 292 293 294 294 294 293 292 289 289 288 286 286 287 286 288 287 287 286 286 287 286 286 285 286 286 286
309 298 295 299 305 305 305 304 304 304 304 304 303 301 301 299 296 294 294 292 291 291 293 294 290 291 293 292 292 291 291 291 291 291 290 290 290 290 289 288 286 286 288 289 289 289 289 288 288 288 287 287 288 288 289 291 291 291 291 292 293 293 293 291 291 292 290 287 287 287 287 288 287 287 287 287 287 287 288 287 287 286 286 287 286
306 305 305 303 305 305 305 305 305 305 305 305 304 302 301 298 295 295 294 294 293 292 291 290 289 290 291 291 291 291 291 291 291 290 290 289 289 290 287 285 285 286 286 289 290 290 289 288 288 288 288 289 291 290 289 290 291 291 293 293 293 292 293 291 289 289 291 289 288 287 288 286 286 287 286 286 288 287 286 285 286 286 287 286 287
307 306 306 306 306 305 305 305 304 304 299 301 303 302 301 299 296 296 295 294 293 293 292 291 291 291 292 291 290 290 290 290 290 290 289 289 290 290 289 288 288 289 289 290 290 290 290 290 291 291 292 291 291 291 290 291 292 293 293 294 295 293 293 292 290 288 289 288 287 287 287 287 287 287 287 286 286 286 285 284 285 286 286 287 286
307 306 306 306 306 305 305 305 304 295 299 301 303 302 299 299 298 297 295 293 292 291 292 292 291 290 291 291 294 290 288 289 289 289 289 289 288 290 290 290 290 290 290 291 292 292 292 292 291 292 292 293 292 292 291 291 291 291 293 294 293 292 292 291 290 291 287 287 288 286 286 286 286 286 286 285 286 285 286 285 286 286 287 287 286
307 298 296 295 298 306 305 302 300 301 301 301 302 300 296 298 297 297 297 295 292 293 293 294 293 291 292 291 289 290 289 287 287 287 287 287 288 290 291 291 291 292 293 293 293 293 293 292 292 293 293 293 293 293 292 292 292 291 292 292 292 291 291 289 288 289 287 288 287 287 287 286 285 285 285 285 286 285 285 286 286 286 286 287 287
305 302 296 294 300 300 301 299 300 301 299 302 302 301 298 297 298 297 298 296 294 293 294 294 293 292 292 291 289 289 289 288 287 287 287 287 288 289 290 291 292 292 292 293 294 294 293 294 294 294 294 294 294 293 292 292 292 291 292 291 291 291 289 288 288 288 288 287 287 286 286 286 286 286 285 285 286 286 287 287 287 287 286 286 286
304 301 295 296 297 301 301 301 301 301 301 301 301 301 300 298 299 298 298 296 294 294 295 296 296 295 293 290 290 290 292 290 289 288 288 288 288 289 290 290 291 292 291 292 293 293 294 294 293 293 294 293 293 293 293 292 292 291 291 291 289 288 288 288 288 287 287 287 286 286 286 287 287 286 287 287 288 287 286 286 286 286 286 285 285
303 300 300 300 299 302 301 300 301 298 300 298 302 302 301 299 300 300 297 296 294 295 296 297 298 297 292 291 290 290 293 291 290 289 289 288 289 289 290 291 291 292 292 293 293 293 292 292 291 291 292 292 292 292 292 292 292 292 291 289 289 288 288 288 288 288 288 287 287 286 286 286 286 286 286 289 286 286 286 286 286 285 285 285 285
301 302 303 302 302 302 300 301 301 302 302 302 302 298 299 301 301 299 298 297 296 295 296 297 298 298 293 289 290 289 292 292 289 290 290 290 290 290 290 290 291 292 292 292 292 293 292 291 291 291 291 292 293 292 291 291 291 290 289 289 289 288 289 288 287 287 287 287 288 287 287 287 287 286 285 285 286 286 286 285 284 285 285 286 285
302 301 301 301 303 302 301 302 301 301 302 299 300 300 300 301 302 302 301 300 299 296 298 298 299 296 293 290 289 290 291 291 291 291 291 290 290 290 290 291 291 291 292 292 292 293 292 292 291 292 293 293 294 294 293 292 290 290 288 289 288 288 288 289 288 288 288 288 288 288 288 287 287 286 287 287 286 285 286 284 284 286 286 286 286
303 302 300 301 302 302 302 301 301 300 299 297 301 303 300 303 302 302 302 302 298 298 298 298 296 292 290 291 290 290 291 292 291 290 291 291 292 292 292 292 292 292 292 292 294 294 294 293 292 291 291 293 293 294 293 294 295 295 291 291 290 289 289 289 290 290 289 288 288 288 288 287 287 287 287 287 286 285 285 285 285 287 286 286 285
303 301 300 301 300 300 300 302 297 300 300 301 302 303 303 304 304 303 301 301 300 300 299 296 293 292 291 292 291 290 292 293 293 292 292 293 293 293 293 293 293 293 293 293 294 295 293 293 292 291 291 291 292 292 292 293 295 294 295 294 293 291 292 292 291 289 288 288 289 288 289 288 287 287 287 287 286 285 286 284 284 285 285 284 285
303 302 300 301 301 299 299 300 299 299 300 300 301 302 302 303 303 300 298 300 300 299 297 295 293 291 292 292 292 292 292 293 293 293 293 295 295 293 292 293 293 293 292 293 294 294 294 293 292 291 290 291 291 293 293 292 294 294 293 294 294 295 295 293 292 292 290 290 289 288 288 287 287 286 287 287 286 286 285 286 285 285 284 285 286
303 302 302 300 300 300 300 300 299 295 300 298 300 300 300 301 302 302 301 300 299 298 297 295 293 292 291 292 292 293 293 294 295 294 293 292 292 292 292 292 291 292 292 293 293 292 291 292 292 291 291 291 290 291 293 293 294 294 293 295 294 294 294 291 292 293 292 291 291 290 289 288 287 287 287 288 287 287 286 287 286 286 285 286 286
303 303 303 302 301 301 300 300 299 299 300 300 298 300 299 300 301 302 301 300 298 297 297 295 294 293 292 293 293 294 294 294 295 293 290 289 290 292 292 292 291 292 291 291 292 292 292 293 292 292 292 291 291 291 292 293 293 294 294 295 293 291 290 288 289 291 291 290 289 289 289 288 288 287 287 286 286 285 286 285 285 286 286 285 285
303 302 302 301 301 301 300 300 300 301 300 301 300 300 299 298 298 299 300 297 296 297 298 297 296 295 293 293 293 294 293 292 292 292 291 291 291 291 292 293 293 292 292 292 292 292 293 292 293 292 291 292 291 293 292 292 293 293 294 295 290 289 289 289 288 288 291 289 289 288 288 287 286 285 285 286 285 285 285 286 286 286 285 284 285
301 301 301 301 301 301 301 300 300 301 301 301 300 300 299 299 298 296 296 297 297 297 296 297 297 296 296 295 293 294 293 293 293 293 293 293 293 292 292 293 293 293 293 293 293 292 293 293 291 291 291 290 291 292 293 293 293 294 293 292 291 290 289 288 291 288 287 285 285 287 288 288 288 287 286 285 284 285 287 286 285 285 285 286 285
Wind_Speed
13 11 11 11 12 12 12 11 12 11 11 11 10 9 8 9 9 8 8 9 9 9 9 9 9 8 8 7 7 6 6 6 6 6 5 5 6 6 6 6 6 5 4 4 4 5 6 5 5 4 4 5 4 4 5 5 4 5 5 6 4 2 2 1 1 5 3 1 3 4 7 6 6 6 7 6 7 6 7 8 11 9 7 6 9
13 12 11 11 13 12 12 11 12 11 12 11 10 9 9 9 9 8 9 9 10 10 10 9 8 8 7 7 7 6 6 7 6 5 6 6 6 5 6 6 5 5 5 5 5 5 5 6 4 4 4 5 4 4 4 6 5 4 4 6 5 4 2 3 2 1 7 4 5 5 5 4 5 6 6 7 6 6 10 11 9 9 7 7 8
12 12 12 12 14 13 12 11 12 13 13 11 11 9 9 9 8 9 9 9 8 9 9 9 9 8 7 7 7 6 7 6 5 5 6 6 6 6 6 6 5 6 6 6 6 5 5 4 4 2 3 4 4 4 5 5 4 5 4 4 4 3 4 3 3 2 4 6 3 5 5 6 5 6 7 6 5 8 10 10 9 8 8 8 7
12 13 12 13 13 13 13 11 13 14 14 11 12 10 10 9 8 9 9 9 9 8 9 9 9 8 8 8 7 7 7 6 5 6 6 5 6 7 6 5 6 6 6 6 5 5 4 4 3 3 4 6 4 5 5 4 4 4 4 3 4 4 4 4 4 1 2 5 5 5 6 7 6 6 7 5 7 9 8 8 7 9 10 7 7
13 13 14 14 14 14 13 12 13 14 13 11 13 11 11 9 8 9 9 8 8 9 9 9 9 8 8 9 8 8 7 6 7 6 5 4 6 7 6 6 5 6 6 5 5 5 4 4 3 4 5 6 4 5 5 5 4 5 4 4 4 3 4 4 4 3 3 5 5 4 6 5 5 7 6 7 7 7 6 7 8 10 10 8 5
14 14 13 14 14 15 14 13 14 14 13 13 13 12 10 9 9 8 9 10 9 9 10 8 8 9 9 8 8 8 7 6 7 7 6 5 6 6 5 5 5 6 6 5 5 4 4 4 4 5 5 6 4 4 4 4 4 4 4 4 4 4 4 4 4 4 4 4 4 5 5 6 7 6 6 6 8 8 7 6 8 9 9 9 7
15 15 14 14 14 15 14 13 13 12 12 13 12 11 10 10 10 10 8 10 10 10 9 9 8 9 9 8 8 8 7 6 7 7 6 7 7 6 5 6 6 6 5 5 5 5 5 5 5 6 6 5 5 4 4 4 4 3 3 3 3 3 4 3 3 4 3 4 3 3 4 5 4 7 6 5 6 6 7 7 9 9 11 10 8
14 15 15 14 14 14 14 13 12 12 11 12 12 11 11 10 10 9 9 9 9 10 10 10 8 8 8 8 8 7 7 7 7 6 6 7 6 5 6 7 7 5 5 5 4 5 6 6 6 5 5 5 5 4 4 3 2 2 1 1 2 3 3 3 3 3 3 4 3 5 3 4 6 4 5 5 6 7 5 4 10 11 11 12 8
14 15 15 15 14 13 12 12 11 11 12 12 12 11 11 11 10 10 9 8 8 9 8 9 9 8 7 8 8 7 7 7 6 7 7 7 6 6 6 7 7 6 5 5 4 6 6 5 5 4 4 7 8 5 4 3 2 0 1 0 1 1 2 3 3 4 4 3 6 4 5 6 6 6 8 7 8 9 9 5 7 9 10 12 12
14 14 15 14 13 13 13 12 12 12 12 13 12 11 11 10 10 10 10 10 9 9 8 8 9 8 8 7 7 7 7 5 8 12 9 7 6 5 5 6 5 6 6 6 5 6 6 5 5 10 9 8 6 5 4 3 3 2 2 1 1 1 3 4 5 4 3 5 5 5 7 8 8 7 6 7 8 7 8 8 9 10 9 8 11
13 13 13 13 13 13 13 13 13 13 12 12 11 12 11 10 10 10 10 10 10 9 9 9 8 7 8 8 8 7 6 6 12 11 12 12 7 5 5 5 5 5 6 6 5 6 5 5 5 7 7 7 4 6 5 5 5 5 6 6 5 3 4 4 6 4 3 3 4 5 5 7 9 7 7 8 7 7 8 8 9 9 10 12 12
14 14 13 13 14 14 13 14 13 13 12 12 12 12 11 11 10 10 10 11 9 7 8 8 7 7 8 8 8 7 7 9 11 11 13 13 9 6 4 5 5 5 5 6 5 6 5 5 4 4 4 4 4 4 5 5 6 6 7 9 9 8 8 7 6 5 3 3 5 6 5 7 8 8 8 6 7 8 9 8 9 9 11 11 10
14 14 13 13 13 14 14 14 13 13 13 13 12 11 11 11 11 10 10 9 8 8 7 8 8 8 9 9 8 7 7 10 11 11 11 10 10 8 5 5 6 5 5 6 5 5 6 5 4 4 4 8 5 3 2 0 1 4 6 8 10 11 11 12 12 9 4 4 5 7 6 4 6 8 8 8 7 8 9 9 9 8 9 10 10
14 14 14 14 14 13 14 14 14 13 12 12 12 12 11 11 10 9 9 8 9 8 7 9 8 8 9 9 8 7 7 9 11 11 11 11 12 9 4 6 5 6 5 6 6 6 7 7 6 4 4 4 4 5 4 3 2 2 3 3 4 8 9 9 9 10 8 7 5 6 9 2 7 9 12 8 8 9 8 9 9 8 9 11 13
13 14 14 14 14 14 14 14 14 13 13 12 12 12 12 10 10 9 10 10 10 10 10 9 8 8 8 8 8 7 6 11 12 13 12 11 12 8 4 3 5 4 6 5 5 6 7 7 7 6 5 4 4 5 4 3 2 3 3 4 5 5 4 3 1 3 4 5 6 8 10 8 8 10 10 10 7 8 7 8 8 8 9 9 9
13 13 14 14 14 14 15 14 14 13 13 12 12 12 11 11 11 10 9 7 6 7 5 7 8 8 8 9 8 7 7 13 12 12 11 10 11 5 4 3 3 4 4 4 5 7 7 7 5 4 5 5 6 9 6 3 3 2 3 4 5 5 5 3 3 5 4 3 5 6 7 9 12 11 12 10 9 8 6 6 5 5 6 8 10
14 15 16 15 15 14 14 14 14 14 14 14 13 12 11 10 9 9 10 8 9 8 8 7 7 8 7 7 8 8 7 11 13 12 12 11 8 6 4 1 1 3 4 4 4 5 5 5 5 7 6 5 6 8 8 7 3 1 2 3 4 4 5 3 3 2 3 6 9 11 13 15 16 17 17 17 10 5 2 5 8 6 7 9 10
13 13 14 14 15 15 15 15 15 15 14 14 13 11 10 9 11 10 12 11 10 9 9 8 8 7 8 9 9 8 7 10 13 13 13 12 8 6 4 3 0 4 4 4 4 4 4 9 7 7 6 5 7 7 7 5 2 0 1 2 4 4 5 4 5 7 9 11 13 13 13 14 15 15 14 11 12 6 2 7 8 6 8 8 10
15 15 14 14 14 13 13 14 15 15 14 13 11 12 12 12 11 9 9 9 9 8 8 8 7 6 7 8 9 10 8 10 13 14 14 13 9 6 6 3 2 3 4 4 3 4 3 6 10 8 8 8 9 7 7 5 3 1 1 1 3 4 6 3 4 6 8 9 10 10 11 13 11 6 5 12 13 9 5 5 7 6 8 9 9
13 12 13 13 12 12 12 14 14 15 15 12 10 10 9 9 10 10 9 8 9 8 7 8 8 7 7 7 8 9 9 8 10 11 13 13 13 8 7 7 6 5 4 5 5 3 4 4 8 13 13 12 10 9 8 7 4 3 2 2 3 5 3 3 2 2 5 5 7 7 9 9 8 5 6 7 8 6 6 6 6 6 6 7 8
14 13 13 13 12 12 11 13 13 11 11 11 11 10 9 10 10 9 10 8 9 8 8 8 8 7 7 4 6 7 10 11 11 15 14 15 15 13 7 6 4 4 3 4 6 6 6 6 4 11 14 13 12 11 9 8 6 3 4 4 6 4 2 4 5 6 5 6 6 7 8 8 5 6 6 7 7 7 7 6 7 5 5 6 7
14 13 14 13 13 13 12 10 11 12 12 11 10 10 8 9 10 10 9 9 11 10 8 8 8 6 6 6 8 8 9 13 10 13 15 15 14 14 8 5 6 5 3 1 4 6 7 7 6 10 14 13 12 11 10 9 8 3 6 10 10 8 4 2 4 4 6 6 6 7 8 6 6 7 7 7 7 8 7 7 7 7 7 4 4
14 14 14 14 13 13 12 13 12 9 10 11 12 11 10 11 10 10 11 11 11 11 10 9 9 8 7 7 7 8 8 9 15 12 13 14 14 13 11 8 7 5 4 1 0 2 3 6 9 14 15 14 12 11 10 9 6 6 10 9 10 7 4 3 3 4 6 6 6 7 7 4 5 7 6 7 8 7 7 7 8 8 7 8 6
14 14 14 13 12 13 12 12 11 11 13 12 11 12 11 11 10 10 10 10 9 9 8 9 9 10 9 8 7 7 7 8 10 14 12 14 14 14 12 10 9 4 4 2 0 2 2 5 8 13 15 14 12 11 10 8 7 10 10 11 9 4 2 3 4 4 4 6 7 7 6 4 3 6 6 7 7 7 7 7 8 8 8 8 8
12 12 12 12 13 12 12 11 11 11 11 12 12 11 11 11 10 9 9 9 9 9 9 9 10 10 9 8 7 6 6 7 7 10 14 14 14 14 12 10 8 8 4 1 0 1 2 2 8 13 14 13 12 9 6 8 11 10 11 12 8 3 5 4 6 4 6 7 7 7 5 4 3 5 6 5 5 5 5 7 8 8 8 8 9
12 12 12 12 12 13 12 10 10 11 11 10 11 11 13 12 11 10 9 9 9 9 10 9 9 9 9 7 8 8 7 6 7 7 8 10 10 12 11 10 8 7 6 5 5 2 1 5 6 9 9 8 5 4 4 7 10 11 12 10 5 6 5 5 5 5 6 7 6 7 6 4 4 5 4 4 5 7 5 6 7 9 8 7 9
13 12 13 12 12 12 13 10 9 9 9 9 9 9 9 9 10 10 10 10 10 10 10 9 9 9 8 7 7 8 8 7 7 7 7 6 6 6 6 6 7 7 4 4 3 3 1 3 4 6 5 7 7 7 7 7 5 6 6 6 6 6 6 6 7 7 7 7 6 7 7 6 3 4 6 6 6 7 5 5 6 7 7 7 6
13 13 13 11 10 11 11 14 14 10 10 10 10 9 9 10 11 12 12 13 12 11 10 10 10 10 9 8 7 8 8 8 8 8 8 8 8 7 7 7 7 7 6 5 5 3 3 4 3 3 3 3 5 5 6 6 6 5 6 6 6 6 7 8 6 5 7 7 7 6 6 4 3 6 5 6 7 7 6 5 5 7 7 5 6
13 13 11 10 10 9 10 11 10 10 10 10 10 11 14 13 12 9 7 8 11 13 12 10 9 9 8 9 10 9 8 10 12 11 13 13 11 10 9 9 8 8 8 9 4 4 3 5 5 4 5 6 5 7 6 5 6 6 5 6 6 6 7 4 7 7 8 7 7 8 8 4 5 4 4 5 6 7 6 7 6 6 8 5 7
11 11 10 10 10 9 9 9 10 10 10 10 9 6 2 4 6 9 9 10 10 10 11 11 11 8 9 8 10 11 12 9 9 14 14 14 14 15 13 11 11 9 10 14 9 5 6 6 7 7 7 7 6 7 6 6 5 6 7 7 7 6 7 7 7 8 7 8 8 6 5 4 4 5 4 5 7 7 7 5 6 6 5 6 7
9 9 10 9 10 10 9 9 9 9 9 9 8 8 6 6 7 8 7 11 12 13 13 13 13 10 10 8 7 10 10 14 17 16 15 15 16 16 14 13 13 13 13 10 6 7 6 7 7 6 6 6 7 7 6 5 6 6 7 7 7 8 7 7 8 5 5 4 4 5 4 3 4 4 3 5 6 7 8 7 6 6 6 7 6
11 9 8 8 10 10 9 9 9 9 9 8 9 8 8 8 5 4 6 13 13 13 15 15 14 11 12 10 8 6 12 16 18 18 18 17 17 16 15 14 14 13 14 14 8 7 7 7 7 7 6 5 5 5 5 6 6 6 7 6 7 7 7 6 6 6 6 5 5 6 4 3 3 3 3 4 5 6 7 7 7 7 7 7 7
12 11 9 10 9 9 9 9 8 9 10 10 10 9 9 9 10 8 2 3 13 15 13 13 15 13 12 13 16 12 11 13 18 18 18 18 17 16 15 15 14 15 13 9 8 7 7 7 7 6 5 5 5 5 6 6 6 7 7 5 6 7 6 7 5 4 4 7 7 5 3 4 4 3 3 4 4 6 7 8 7 7 6 6 8
13 12 11 11 11 9 9 9 9 9 9 9 10 11 11 10 9 8 8 5 1 4 11 12 11 13 12 12 13 13 14 15 17 18 18 17 17 16 14 11 14 15 13 10 8 8 7 8 7 6 6 5 6 6 6 7 7 7 7 7 7 7 8 5 3 6 6 5 4 5 4 4 4 1 4 5 5 4 7 7 6 5 7 7 7
10 12 17 13 10 10 9 9 10 9 10 10 10 10 10 10 9 10 10 10 10 9 8 5 4 9 8 6 10 14 14 16 18 18 17 17 16 14 12 7 5 4 6 6 8 7 8 8 7 7 6 6 6 6 6 6 6 6 6 6 8 7 7 4 5 3 2 2 4 4 5 3 3 2 2 4 6 8 8 7 7 5 6 7 7
12 11 11 12 11 10 10 10 8 8 7 8 10 10 9 9 10 10 9 9 9 8 7 6 6 5 5 8 10 13 14 16 17 17 17 17 16 16 9 7 6 7 7 7 8 8 7 7 7 7 6 6 5 5 6 6 7 6 6 7 8 8 6 4 4 3 5 7 6 5 3 2 3 3 2 2 5 7 7 5 5 6 6 7 7
10 10 10 10 10 9 9 10 9 9 10 8 8 8 8 8 8 8 8 9 8 7 7 6 4 3 3 1 1 7 12 14 14 16 17 17 19 14 9 10 10 9 9 8 7 6 7 6 6 6 6 6 6 7 7 7 7 6 6 7 8 7 6 7 6 4 6 5 4 4 4 3 3 3 2 5 7 6 5 4 5 6 6 8 7
13 11 10 10 10 10 10 10 9 10 9 9 9 9 8 9 10 10 10 9 10 9 8 7 7 8 8 6 5 5 6 7 9 6 7 10 9 7 8 9 10 9 9 8 7 7 7 6 6 7 7 7 7 7 7 7 7 6 7 8 6 7 6 7 5 5 5 7 5 4 4 3 2 4 3 3 6 6 5 5 5 7 7 8 7
9 12 14 14 11 10 9 10 10 10 8 8 7 7 9 8 8 8 8 8 9 9 8 8 8 8 7 6 5 6 10 7 7 8 8 8 8 7 7 8 8 8 8 8 7 7 7 7 7 8 8 8 8 8 7 7 7 7 7 8 7 7 5 4 4 5 5 5 5 4 3 3 4 4 4 5 5 5 5 6 6 6 7 7 8
9 7 9 12 7 7 8 7 8 8 9 11 10 10 9 9 10 9 9 9 9 9 8 8 8 8 7 8 7 7 8 8 8 9 9 9 9 8 7 8 8 8 8 8 7 7 7 8 7 7 8 8 8 8 7 7 7 8 7 6 7 8 6 5 4 4 6 5 5 4 5 6 4 4 4 4 5 5 7 7 7 6 6 6 7
7 8 8 8 8 8 7 9 8 8 8 9 9 10 10 10 9 9 9 9 9 9 9 9 9 8 9 12 15 14 9 9 9 8 9 10 9 9 8 7 7 8 8 8 7 7 7 8 7 7 7 7 7 7 7 7 8 7 6 7 5 5 3 3 4 5 5 4 4 3 3 5 6 4 5 6 5 5 6 5 6 5 6 5 5
8 8 7 7 8 8 8 9 9 10 8 5 7 8 8 8 9 9 9 9 9 9 8 8 9 8 11 20 19 18 10 8 8 8 8 8 9 9 9 8 7 7 8 8 8 8 8 7 8 8 7 7 7 7 7 7 7 7 8 7 6 6 5 5 6 5 5 6 5 4 4 4 5 4 6 6 5 5 5 6 6 5 5 6 6
9 8 8 7 8 8 9 8 7 8 8 8 8 7 8 8 9 9 8 9 9 9 8 9 8 7 11 19 21 20 11 9 9 10 9 9 9 9 9 9 9 8 8 7 7 7 7 8 7 7 7 7 8 8 8 8 8 7 6 6 5 5 5 5 4 5 5 4 5 6 6 6 5 5 5 4 5 5 5 5 5 5 4 6 5
8 7 6 7 6 6 6 7 7 7 8 8 8 8 8 8 7 8 9 8 8 10 10 10 9 7 8 13 15 13 10 9 8 9 10 9 9 9 9 9 8 8 7 7 7 7 7 6 7 7 6 6 7 7 8 8 7 5 5 5 5 4 4 5 5 6 6 6 6 5 6 6 6 5 5 6 5 5 5 4 4 5 5 6 5
7 7 7 7 6 6 6 6 6 7 7 6 6 7 7 8 7 8 8 8 8 8 9 9 8 7 8 10 11 12 11 9 9 9 9 9 10 10 9 9 9 9 8 7 7 7 7 7 7 7 7 7 7 7 7 5 5 7 6 5 4 4 5 5 6 6 5 5 6 7 7 6 6 6 6 6 5 5 5 4 4 5 5 5 4
8 7 8 8 7 7 7 6 6 6 7 7 7 7 6 7 8 8 8 8 7 6 6 6 7 8 9 10 10 10 10 9 8 8 8 8 8 9 8 9 9 9 8 8 8 9 8 8 8 8 8 7 8 8 8 6 6 6 5 5 6 6 7 6 5 5 6 6 7 7 7 7 7 6 7 7 6 5 5 4 4 3 3 4 5
8 7 7 7 7 7 7 7 7 6 6 7 7 7 6 6 5 7 9 9 8 7 7 6 7 8 8 10 10 10 10 9 9 8 9 9 9 9 8 8 9 9 9 9 10 10 9 9 8 8 8 8 8 8 8 6 6 5 5 5 5 6 6 6 5 5 5 6 6 5 5 6 6 6 7 7 6 5 4 4 4 4 4 4 5
9 9 8 6 6 6 6 6 7 8 6 7 7 7 7 6 6 6 6 7 8 8 8 8 8 7 8 8 9 9 9 8 8 9 8 7 8 8 8 9 8 8 9 10 9 8 8 8 8 8 8 8 8 8 8 7 6 7 6 6 6 6 7 6 4 4 5 5 5 6 7 7 7 6 7 6 6 5 4 6 4 3 4 5 5
8 8 8 8 7 7 7 7 7 8 9 7 8 9 8 8 8 8 7 7 8 8 8 7 7 7 7 8 8 8 9 9 9 8 8 7 7 8 9 9 9 9 8 8 8 9 9 9 8 8 8 8 9 8 7 6 6 5 5 6 8 10 10 8 5 5 5 4 5 4 4 5 5 5 6 5 6 3 3 4 4 5 6 4 5
7 7 8 8 7 6 6 6 6 6 7 7 7 7 7 8 8 8 8 6 6 7 7 7 8 9 8 8 8 8 8 9 9 8 8 7 7 7 8 9 9 9 8 8 8 9 9 9 9 9 9 8 8 7 7 7 6 7 6 7 10 11 10 10 9 7 5 4 4 5 6 5 5 4 4 4 4 3 4 5 5 4 4 4 4
5 6 7 7 7 7 7 6 7 6 6 6 6 6 7 7 6 6 7 8 7 7 7 7 7 7 8 8 9 9 9 9 9 8 8 8 8 7 8 9 9 9 9 8 9 9 9 9 8 7 7 7 6 7 7 7 7 7 9 12 13 12 11 9 6 6 7 6 4 4 3 3 2 2 3 3 3 4 5 5 4 4 5 4 4
Wind_Direction
177 176 169 166 161 163 160 158 155 153 154 157 155 158 150 147 147 144 134 141 138 136 133 134 133 133 134 133 137 137 133 135 138 139 137 135 132 131 127 119 119 126 119 100 97 103 95 90 78 78 93 82 81 56 45 37 35 60 68 64 46 32 92 96 345 306 293 229 285 296 306 316 315 314 321 322 327 341 339 344 344 334 337 343 336
179 171 167 163 162 162 161 158 155 155 155 157 156 153 149 148 146 137 137 145 142 140 139 137 136 138 136 140 141 140 140 144 148 142 140 138 137 130 127 125 125 117 105 107 98 99 105 97 91 89 91 103 85 67 55 39 32 50 51 66 36 17 10 62 0 297 306 329 326 309 303 317 312 318 328 330 339 343 349 344 334 330 335 344 330
173 167 164 165 163 162 162 160 157 157 157 158 154 148 148 147 149 138 138 142 140 141 141 139 141 142 140 144 145 145 146 149 147 137 145 145 137 131 133 133 127 119 112 109 113 114 106 116 134 120 78 78 77 71 54 43 45 55 46 52 56 29 27 49 34 332 314 308 311 320 322 328 326 318 331 338 345 350 344 334 328 327 329 332 323
169 166 165 165 161 162 165 162 159 159 160 158 149 148 148 151 152 142 142 143 139 140 140 142 143 147 146 149 150 150 151 150 143 144 147 142 130 131 134 130 127 122 121 123 124 115 121 121 144 126 100 89 78 65 46 45 42 44 50 35 57 29 18 17 13 346 300 328 325 333 329 335 323 329 332 341 351 345 334 321 320 320 319 324 320
166 167 165 164 164 164 166 164 161 161 159 153 147 148 150 151 152 144 143 148 143 142 143 143 146 150 152 155 155 155 159 153 146 146 144 134 128 132 132 132 131 132 133 137 130 128 131 144 147 98 97 97 76 68 54 43 31 40 47 37 41 26 16 12 355 9 358 336 315 327 337 329 322 322 327 344 340 333 326 315 315 315 312 316 314
168 166 164 163 166 165 166 166 162 160 155 150 149 149 151 152 153 151 149 149 146 149 147 149 152 155 157 158 155 158 158 152 148 147 146 133 131 131 135 133 133 135 137 134 132 133 131 120 99 87 92 98 93 76 63 55 46 46 41 33 31 27 23 358 2 1 8 334 336 323 339 336 330 320 318 341 334 325 315 306 310 310 315 324 325
167 165 163 163 165 167 167 166 160 155 152 150 149 150 153 156 156 159 156 147 149 150 150 149 156 155 160 155 157 159 156 149 147 149 148 142 138 144 137 129 130 125 122 125 126 122 118 106 88 90 94 101 99 97 87 58 65 58 60 44 30 43 11 354 353 356 351 342 321 319 310 310 318 316 315 329 321 308 307 315 318 317 319 323 325
165 164 162 163 166 167 164 161 156 150 148 149 151 153 156 159 161 158 152 148 150 153 156 156 156 153 158 156 157 155 152 153 155 153 143 144 141 140 132 132 131 127 126 131 124 121 109 101 107 110 114 117 117 118 108 106 73 58 334 52 36 30 356 335 342 334 337 339 319 319 320 310 319 296 300 323 324 313 306 319 317 320 322 319 321
164 162 162 163 164 161 157 154 152 149 149 150 153 157 160 161 160 157 148 146 151 155 154 152 153 154 157 153 155 155 154 154 152 147 137 127 132 144 137 138 138 136 138 134 132 111 105 118 117 127 128 128 127 135 150 142 124 103 302 48 4 346 327 328 315 327 329 329 313 312 315 319 306 315 321 323 319 307 308 320 305 310 315 316 317
163 162 163 162 157 155 151 150 152 153 155 157 158 159 160 160 159 155 149 150 153 154 153 157 157 158 157 152 148 142 142 146 143 136 141 151 149 142 141 144 141 140 140 139 132 119 131 134 146 142 139 140 146 157 175 198 202 191 220 249 269 311 303 302 304 301 310 311 300 315 331 318 313 310 304 297 298 303 314 319 319 312 312 304 308
160 161 161 157 154 151 149 151 154 159 159 158 159 161 162 159 158 154 150 153 157 158 157 161 160 157 148 142 138 138 140 145 136 148 159 142 140 143 141 151 145 140 143 148 151 141 147 147 142 148 151 163 175 194 202 215 233 253 269 263 246 245 273 286 284 277 282 294 292 317 304 299 300 301 299 299 308 314 313 318 312 314 321 326 324
160 161 155 154 154 152 151 152 157 160 160 161 163 164 160 158 158 154 152 155 157 152 160 159 139 138 136 137 138 136 138 142 144 167 153 141 140 148 148 153 155 149 151 157 161 145 153 148 155 151 160 177 191 207 226 234 240 257 272 277 277 263 237 234 259 281 262 280 303 286 286 287 292 302 297 305 309 318 313 316 311 313 316 316 313
160 157 156 154 156 154 153 157 160 161 164 162 163 163 161 159 157 155 155 151 142 147 150 136 140 141 141 140 136 133 132 149 157 161 145 143 150 152 155 156 155 169 160 166 171 153 156 154 167 175 186 197 196 191 186 174 197 245 260 276 281 272 257 242 235 237 254 257 264 283 267 273 297 293 296 303 316 313 312 312 308 310 305 303 305
161 159 157 157 156 156 156 158 160 162 163 164 163 164 162 162 157 147 140 140 140 136 136 138 141 146 145 140 136 137 138 156 149 140 141 144 152 144 153 162 155 175 171 178 179 167 160 163 174 193 205 199 144 142 116 99 70 22 340 313 295 298 294 262 242 232 230 230 241 256 277 238 269 286 295 303 315 305 305 298 301 306 304 300 301
163 158 157 158 157 158 159 161 160 161 164 166 167 167 164 156 147 145 148 151 149 151 149 145 147 143 141 138 141 144 152 161 154 146 149 149 134 114 99 153 171 174 189 189 177 171 165 167 175 184 176 150 157 133 119 115 80 28 352 322 316 297 312 328 180 195 202 217 227 241 265 279 274 280 288 298 295 285 274 272 284 278 279 282 297
163 157 155 157 160 162 161 162 160 161 165 168 169 168 164 156 147 143 138 129 122 123 127 136 145 147 145 148 143 148 157 164 161 155 151 148 138 125 114 108 169 181 169 155 155 157 157 163 168 157 141 151 145 134 135 118 82 46 343 320 319 330 333 293 199 184 196 204 221 245 265 275 278 282 285 288 288 280 291 303 293 288 312 325 324
161 160 157 159 160 161 162 160 162 165 167 169 172 167 157 148 140 141 141 143 141 145 148 149 148 147 147 151 152 155 159 178 169 164 157 152 138 134 129 110 86 145 157 162 148 149 156 161 145 135 146 153 157 139 136 110 92 52 336 330 319 331 308 307 257 238 276 275 274 276 282 290 296 297 299 297 279 254 260 326 318 319 331 328 326
160 157 157 158 159 161 164 165 165 167 169 172 171 164 151 146 150 156 156 156 155 156 152 153 161 158 154 159 164 157 167 182 177 169 164 163 157 151 147 143 115 157 164 162 161 161 171 171 157 135 151 158 166 150 140 119 109 108 8 350 330 323 305 320 347 334 335 334 325 321 313 304 301 298 289 287 300 318 7 329 303 337 327 327 325
161 160 157 157 159 161 165 167 167 165 169 172 165 158 154 155 156 154 151 149 150 149 155 157 159 159 161 159 153 158 169 177 186 177 170 169 161 158 151 148 145 191 164 185 187 176 201 175 132 137 148 165 167 164 158 142 142 171 194 301 291 289 266 307 3 344 336 336 325 330 323 317 312 299 312 319 320 327 333 301 307 334 323 322 322
159 152 152 158 160 160 165 168 166 168 169 162 156 153 145 142 150 149 147 150 148 150 149 153 158 170 169 167 162 158 161 169 183 184 172 178 171 164 167 171 171 198 188 182 197 204 182 165 145 145 152 161 171 171 174 166 155 190 177 202 244 270 265 324 318 327 306 299 296 307 304 301 292 317 329 327 325 327 321 314 309 320 320 316 320
157 156 157 159 162 163 166 173 166 155 153 159 152 147 148 148 146 146 148 147 148 154 155 157 163 172 176 149 152 165 168 174 181 177 189 188 182 172 172 165 156 165 186 197 197 187 186 180 174 164 161 168 172 178 176 179 179 177 191 210 214 224 342 340 310 333 310 305 308 309 307 300 311 326 324 323 323 323 321 315 316 318 321 314 314
157 158 161 164 165 165 166 160 157 165 161 152 150 149 145 147 151 150 150 153 158 161 160 164 169 163 169 154 165 176 179 167 168 186 191 197 189 175 164 159 146 131 104 134 219 199 183 189 183 186 174 172 177 180 181 182 190 192 223 225 239 258 285 282 291 294 303 302 310 308 301 305 332 326 324 321 320 321 317 316 320 322 318 295 273
159 159 162 165 166 164 164 160 158 158 160 158 154 152 151 151 154 157 158 161 163 167 172 167 164 170 160 165 173 173 172 172 169 180 197 197 191 182 156 133 135 120 121 112 323 266 253 201 197 185 183 180 180 181 182 192 186 222 236 242 246 255 265 264 263 287 294 301 304 300 282 303 330 321 316 317 316 318 316 318 320 322 319 318 314
160 160 162 160 155 158 155 155 155 156 156 154 152 149 153 153 155 161 161 163 166 162 168 163 165 170 166 162 167 170 174 171 182 182 186 197 190 186 168 152 141 132 122 145 174 260 257 206 209 190 186 183 181 181 187 187 211 233 241 250 254 248 251 273 277 269 283 293 299 277 277 289 309 313 305 301 305 304 305 314 321 321 320 320 315
153 156 152 146 148 149 151 152 151 151 152 152 152 154 154 153 152 161 163 166 167 168 164 165 169 170 169 162 161 168 175 172 174 194 190 191 190 189 189 184 171 143 140 194 115 1 291 279 211 184 177 176 179 183 197 221 232 241 250 256 263 260 246 253 268 284 291 280 274 265 268 270 269 256 270 294 307 316 325 325 324 320 321 326 323
145 147 144 146 148 148 148 149 147 151 152 155 157 161 160 161 160 163 167 168 168 163 163 165 168 168 171 164 161 167 169 162 181 189 198 192 190 191 190 186 179 176 170 176 170 238 350 88 121 149 156 163 163 186 220 234 238 238 245 252 254 246 245 249 263 259 257 266 266 258 255 265 291 281 286 314 335 312 306 316 324 319 326 334 334
142 145 149 149 150 152 149 149 146 147 151 150 153 156 160 162 161 163 166 166 168 168 168 168 165 170 169 176 161 165 169 175 179 187 187 186 191 185 176 183 174 166 176 193 199 255 263 166 157 167 174 185 194 213 227 248 258 257 248 240 235 234 233 225 237 243 253 258 262 258 255 258 278 332 319 328 314 299 304 308 316 305 322 327 335
146 148 149 149 149 150 149 147 148 152 156 156 157 160 168 169 168 172 174 175 173 175 173 174 175 175 180 179 170 167 177 182 184 180 187 187 189 181 183 183 182 179 180 190 188 201 196 210 185 196 201 220 226 243 246 245 248 256 259 251 245 243 240 241 247 235 242 240 244 259 278 300 324 288 303 316 297 294 306 322 309 308 317 335 342
145 146 144 140 142 146 147 153 155 156 159 164 172 174 172 174 176 182 186 177 177 171 173 178 181 184 181 181 178 181 177 190 202 189 184 186 182 181 186 194 187 188 188 170 175 198 176 175 193 207 208 216 229 235 245 255 266 256 262 261 250 247 247 241 242 246 241 239 245 231 244 285 288 289 302 313 302 301 312 325 309 316 316 338 329
141 143 144 144 144 144 149 156 157 160 162 164 161 161 132 160 178 171 170 174 169 172 172 176 184 181 181 191 186 183 195 197 161 175 182 183 190 194 199 188 181 179 175 178 171 180 186 182 194 196 207 211 222 234 239 246 260 275 269 264 261 250 240 238 237 240 232 213 211 218 248 252 274 290 301 293 300 311 311 321 303 317 326 323 323
139 143 148 150 152 151 153 156 159 159 161 160 160 158 147 133 142 150 158 167 171 172 177 183 185 182 178 181 196 189 157 144 162 180 182 185 187 191 191 189 185 181 172 167 185 189 194 190 206 203 206 208 218 229 237 244 254 256 265 268 263 247 237 229 231 223 220 221 239 238 240 212 238 260 274 286 300 306 314 313 315 321 319 311 321
148 150 150 145 147 150 157 158 158 159 159 159 158 158 155 147 153 168 161 170 180 175 174 181 186 184 181 175 164 179 164 162 169 179 185 185 187 187 187 186 189 181 185 169 180 203 191 188 196 208 207 214 228 228 231 236 244 243 249 264 263 242 228 240 237 226 243 238 238 247 226 216 225 241 253 292 312 308 306 310 312 316 315 320 316
143 143 139 142 146 148 153 157 161 163 163 161 161 161 159 163 168 179 219 208 186 175 170 175 186 193 186 179 171 168 173 174 174 178 184 186 183 184 182 185 185 188 168 172 192 197 206 202 198 207 202 219 237 243 254 248 254 259 256 244 250 259 231 236 239 239 222 221 226 222 203 215 222 236 286 304 312 305 308 304 299 305 307 322 322
146 146 147 149 152 159 163 165 168 168 169 170 170 168 170 173 176 167 157 142 133 211 192 175 179 183 180 173 175 174 169 171 178 181 182 180 178 179 176 185 190 182 171 184 179 197 200 205 206 209 218 222 231 241 249 252 251 255 264 265 255 256 251 244 214 228 230 232 189 197 190 210 215 257 306 301 303 303 301 287 297 318 315 313 314
124 129 138 148 157 162 164 169 173 172 172 174 173 176 175 171 164 167 169 172 176 171 181 189 199 186 175 179 174 176 176 177 180 179 175 172 171 163 144 131 148 169 188 192 192 195 195 196 200 206 210 220 226 223 235 246 248 247 247 258 263 246 245 237 228 244 231 160 165 179 200 219 260 268 261 289 304 311 293 296 305 299 299 312 318
131 141 148 149 155 164 166 170 175 172 170 179 181 181 175 162 163 171 167 168 166 165 170 180 179 227 205 179 176 177 180 181 177 172 168 162 155 142 148 172 170 184 191 198 197 198 188 191 192 211 212 225 235 246 246 254 255 254 258 256 250 231 224 232 242 198 167 170 184 199 201 249 256 296 327 312 278 269 267 274 287 295 304 307 308
143 152 162 167 164 162 160 158 156 167 177 174 167 172 176 169 161 158 162 166 167 169 168 150 128 103 62 59 141 177 176 172 168 165 164 164 162 161 167 168 181 184 194 196 193 190 194 204 200 207 213 221 230 234 243 247 252 258 265 265 252 240 234 227 214 168 170 184 196 196 193 238 280 300 278 281 285 272 270 287 293 300 305 307 314
157 160 163 164 156 156 160 165 163 166 170 168 166 165 171 173 170 167 165 167 166 167 174 171 170 173 181 188 141 136 129 115 112 123 153 161 162 171 171 182 184 186 192 196 193 192 200 204 202 208 220 218 227 233 237 248 252 260 268 268 253 227 225 221 228 208 201 187 198 212 223 249 262 262 261 224 243 265 287 277 288 302 310 312 316
157 160 155 154 157 162 163 155 153 157 158 155 150 149 166 168 172 171 163 156 166 177 183 183 182 183 178 148 136 129 121 135 164 172 173 187 192 185 180 184 190 194 195 194 193 194 202 207 214 217 222 223 227 231 231 241 246 253 257 263 269 264 242 221 215 200 190 201 221 226 216 237 244 238 219 231 263 265 257 272 287 293 298 302 299
140 137 135 137 137 143 150 154 155 160 170 167 164 166 166 171 177 172 162 165 178 181 183 184 187 191 167 151 151 157 163 166 176 175 179 185 196 201 195 193 196 198 195 199 196 199 202 213 215 219 222 224 225 228 226 228 234 238 245 252 249 237 227 206 199 188 200 206 203 213 200 220 238 257 284 264 253 264 270 275 279 286 288 282 289
131 136 144 152 148 147 144 146 161 178 182 182 170 172 178 174 168 166 173 178 177 181 191 192 192 191 168 170 169 172 172 177 178 181 185 186 192 199 203 205 199 201 201 199 201 201 206 212 217 217 221 222 224 227 229 226 232 234 235 232 217 218 226 234 216 209 205 191 194 202 230 236 248 239 257 267 266 265 263 259 273 282 283 282 272
128 135 144 140 143 154 158 165 169 171 170 166 166 175 166 167 165 173 180 178 176 183 190 192 195 194 167 166 172 182 180 180 176 180 187 192 195 202 206 208 207 203 197 198 199 202 207 208 213 215 221 228 228 233 234 235 232 233 233 227 205 194 194 205 202 204 201 206 210 212 223 229 235 227 233 243 262 263 270 279 276 278 283 282 291
141 149 152 151 159 165 170 170 161 162 162 161 166 167 165 169 172 173 175 174 175 182 188 197 201 180 169 172 180 185 189 186 183 187 189 194 199 203 204 209 208 209 208 206 203 203 210 218 224 220 218 225 227 225 216 221 221 218 205 187 186 190 206 224 214 207 199 195 208 216 220 228 233 237 241 240 243 256 264 269 278 284 283 293 297
140 145 148 157 161 153 159 160 165 170 174 171 163 162 165 174 177 179 182 187 175 184 194 194 205 175 161 184 184 184 198 193 191 193 195 195 198 204 208 211 211 212 214 213 213 210 210 219 230 238 235 231 230 227 219 214 200 195 196 197 203 214 224 226 222 221 214 216 220 223 233 230 227 222 236 250 257 265 273 272 276 290 301 303 307
144 151 151 156 157 159 168 172 169 165 162 159 167 175 176 183 184 183 186 196 190 185 190 195 187 159 162 174 184 192 199 201 198 198 199 198 201 206 208 209 210 212 213 217 219 217 218 222 227 235 245 252 250 244 240 231 215 213 205 191 204 228 235 230 230 228 214 212 223 225 230 224 233 235 241 245 249 239 241 247 251 288 306 301 311
152 156 160 162 160 163 168 168 165 160 166 179 182 178 178 177 184 183 191 198 198 198 191 167 161 163 166 173 183 191 198 200 203 203 203 204 205 209 207 207 208 209 211 214 218 219 218 218 220 225 231 240 245 245 244 242 234 219 200 178 184 199 206 211 212 202 205 205 216 220 228 231 242 236 228 232 238 221 226 252 264 255 240 265 281
147 153 157 165 166 169 169 164 164 169 172 177 182 179 183 189 186 186 194 201 198 196 187 166 156 166 171 172 177 188 193 196 200 198 203 207 205 204 203 205 205 207 211 215 216 218 218 219 218 218 223 230 234 236 235 229 227 229 227 218 211 209 207 203 197 196 208 218 218 223 221 211 225 226 237 233 232 233 232 252 254 270 278 266 271
143 151 164 171 162 164 173 165 168 171 175 170 177 185 191 194 198 201 194 197 198 195 191 181 175 169 163 169 177 183 186 194 200 206 205 201 201 199 200 201 202 206 209 214 216 214 213 215 217 218 222 226 226 228 230 229 233 237 242 243 241 236 234 226 223 225 217 207 196 203 204 206 214 220 227 218 225 232 249 271 273 272 269 275 277
157 156 158 173 180 172 176 174 174 176 184 179 178 184 190 195 203 206 207 205 199 192 182 175 171 170 168 170 177 184 187 191 200 206 206 205 203 204 202 202 205 207 206 212 214 212 212 215 216 216 217 218 217 219 222 225 230 236 240 241 238 234 230 231 236 240 227 204 197 187 186 190 199 211 213 209 222 215 225 253 257 260 274 274 274
161 166 162 167 173 176 169 172 179 181 179 182 183 187 188 191 196 206 208 197 187 186 182 174 170 172 170 172 180 190 187 192 200 206 209 209 206 204 204 204 207 209 206 211 214 213 211 211 211 212 213 212 210 211 213 218 226 230 235 235 228 223 225 236 243 244 207 169 169 176 174 177 180 185 189 202 217 223 233 246 242 237 238 258 271
148 161 165 171 171 170 171 174 182 187 181 182 184 191 199 204 204 197 185 191 196 185 178 175 175 172 174 178 181 185 191 195 198 202 206 212 209 203 200 202 203 205 206 206 210 207 203 200 202 203 204 205 208 211 214 218 224 229 231 229 228 228 235 244 257 237 193 173 152 141 146 165 185 231 248 242 224 227 238 236 235 231 239 244 257